GW3387 Weather Reports


time (UTC)temp
C
wind
direction
speed
KPH
gust
KPH
rain 1hr
cm
rain 24hr
cm
rain mn
cm
humidity
%
barometer
mb
20260503200022 10 360 0.0 1.6 0.00 0.00 0.00 100 1014.1
20260503194525 10 360 0.0 0.0 0.00 0.00 0.00 100 1014.1
20260503193016 11 360 0.0 0.0 0.00 0.00 0.00 100 1014.2
20260503191517 11 360 0.0 1.6 0.00 0.00 0.00 100 1014.2
20260503190021 11 360 0.0 0.0 0.00 0.00 0.00 100 1014.1
20260503184521 12 360 0.0 0.0 0.00 0.00 0.00 100 1014.1
20260503183024 12 360 0.0 0.0 0.00 0.00 0.00 100 1014.0
20260503181525 13 360 0.0 0.0 0.00 0.00 0.00 100 1013.9
20260503180013 15 360 0.0 0.0 0.00 0.00 0.00 100 1013.9
20260503174512 16 360 0.0 0.0 0.00 0.00 0.00 100 1013.9
20260503173035 17 360 0.0 0.0 0.00 0.00 0.00 100 1013.8
20260503171513 19 360 0.0 1.6 0.00 0.00 0.00 100 1013.8
20260503150105 21 283 4.8 12.9 0.00 0.00 0.00 100 1014.7
20260503081559 16 261 6.4 16.1 0.00 0.00 0.00 100 1020.0
20260503080152 15 179 3.2 14.5 0.00 0.00 0.00 100 1020.0
20260503071543 13 281 6.4 11.3 0.00 0.00 0.00 100 1020.4
20260503054521 7 360 1.6 6.4 0.00 0.00 0.00 100 1020.6
20260503053011 6 360 3.2 6.4 0.00 0.00 0.00 100 1020.5
20260503051508 3 360 0.0 6.4 0.00 0.00 0.00 100 1020.5
20260503050006 3 360 0.0 0.0 0.00 0.00 0.00 100 1020.7
20260503044505 2 360 0.0 0.0 0.00 0.00 0.00 100 1020.7
20260503043001 1 360 0.0 1.6 0.00 0.00 0.00 100 1020.5
20260503041600 0 360 0.0 1.6 0.00 0.00 0.00 100 1020.4
20260503040104 0 54 0.0 0.0 0.00 0.00 0.00 100 1020.3
20260503034557 0 54 0.0 0.0 0.00 0.00 0.00 100 1020.0
20260503033049 -1 53 0.0 0.0 0.00 0.00 0.00 100 1020.0
20260503031547 -1 53 0.0 0.0 0.00 0.00 0.00 100 1020.0
20260503030048 -1 53 0.0 0.0 0.00 0.00 0.00 100 1019.9
20260503024548 0 53 0.0 0.0 0.00 0.00 0.00 100 1019.9
20260503023046 0 53 0.0 0.0 0.00 0.00 0.00 100 1020.0
20260503021542 0 53 0.0 0.0 0.00 0.00 0.00 100 1020.0
20260503020041 0 53 0.0 0.0 0.00 0.00 0.00 100 1020.0
20260503014550 0 54 0.0 0.0 0.00 0.00 0.00 100 1020.0
20260503013041 0 59 0.0 0.0 0.00 0.00 0.00 100 1020.0
20260503011537 0 55 0.0 0.0 0.00 0.00 0.00 100 1020.0
20260503010038 0 55 0.0 0.0 0.00 0.00 0.00 100 1020.0
20260503004536 0 56 0.0 0.0 0.00 0.00 0.00 100 1019.9
20260503003038 0 55 0.0 0.0 0.00 0.00 0.00 100 1020.0
20260503001528 0 55 0.0 0.0 0.00 0.00 0.00 100 1020.0
20260503000033 1 54 0.0 0.0 0.00 0.00 0.00 100 1020.3
20260502234542 1 55 0.0 0.0 0.00 0.00 0.00 100 1020.4
20260502233022 1 55 0.0 0.0 0.00 0.00 0.00 100 1020.3
20260502231528 1 55 0.0 0.0 0.00 0.00 0.00 100 1020.4
20260502230022 1 55 0.0 4.8 0.00 0.00 0.00 100 1020.4
20260502224517 2 55 0.0 0.0 0.00 0.00 0.00 100 1020.5
20260502223033 2 55 0.0 0.0 0.00 0.00 0.00 100 1020.5
20260502221509 2 56 0.0 0.0 0.00 0.00 0.00 100 1020.5
20260502220007 3 57 0.0 0.0 0.00 0.00 0.00 100 1020.7
20260502214504 3 57 0.0 0.0 0.00 0.00 0.00 100 1020.6
20260502213121 4 57 0.0 0.0 0.00 0.00 0.00 100 1020.7
20260502211558 5 57 0.0 1.6 0.00 0.00 0.00 100 1020.7
20260502210054 5 56 0.0 0.0 0.00 0.00 0.00 100 1020.7
20260502204553 5 56 0.0 3.2 0.00 0.00 0.00 100 1020.7
20260502203112 5 56 0.0 0.0 0.00 0.00 0.00 100 1020.7
20260502201552 5 56 0.0 0.0 0.00 0.00 0.00 100 1020.8